| time (UTC) | temp F | wind direction | speed knots | gust knots | rain 1hr in | rain 24hr in | rain mn in | humidity % | barometer mb |
| 20260504050021 | 47 | 301 | 7.0 | 8.7 | 0.00 | 0.00 | 0.00 | 53 | 922.6 |
| 20260504045023 | 47 | 342 | 5.2 | 7.0 | 0.00 | 0.00 | 0.00 | 52 | 922.3 |
| 20260504044045 | 48 | 358 | 5.2 | 7.8 | 0.00 | 0.00 | 0.00 | 51 | 922.3 |
| 20260504043028 | 48 | 317 | 4.3 | 6.1 | 0.00 | 0.00 | 0.00 | 50 | 922.1 |
| 20260504042030 | 49 | 344 | 5.2 | 7.0 | 0.00 | 0.00 | 0.00 | 49 | 922.0 |
| 20260504041033 | 50 | 328 | 6.1 | 7.8 | 0.00 | 0.00 | 0.00 | 47 | 921.9 |
| 20260504040016 | 50 | 345 | 6.1 | 7.0 | 0.00 | 0.00 | 0.00 | 46 | 921.8 |
| 20260504035019 | 51 | 342 | 7.8 | 10.4 | 0.00 | 0.00 | 0.00 | 46 | 921.8 |
| 20260504034021 | 51 | 322 | 7.8 | 10.4 | 0.00 | 0.00 | 0.00 | 46 | 921.5 |
| 20260504033037 | 51 | 3 | 7.0 | 9.6 | 0.00 | 0.00 | 0.00 | 47 | 921.3 |
| 20260504032026 | 51 | 337 | 7.8 | 10.4 | 0.00 | 0.00 | 0.00 | 47 | 921.3 |
| 20260504031049 | 51 | 18 | 7.8 | 13.9 | 0.00 | 0.00 | 0.00 | 47 | 921.2 |
| 20260504030030 | 51 | 327 | 7.8 | 11.3 | 0.00 | 0.00 | 0.00 | 47 | 921.1 |
| 20260504025034 | 52 | 354 | 8.7 | 11.3 | 0.00 | 0.00 | 0.00 | 46 | 921.1 |
| 20260504024018 | 53 | 355 | 8.7 | 13.0 | 0.00 | 0.00 | 0.00 | 46 | 921.3 |
| 20260504023019 | 53 | 346 | 12.2 | 17.4 | 0.00 | 0.00 | 0.00 | 45 | 921.0 |
| 20260504022016 | 54 | 7 | 13.9 | 17.4 | 0.00 | 0.00 | 0.00 | 43 | 920.9 |
| 20260504021031 | 55 | 357 | 11.3 | 14.8 | 0.00 | 0.00 | 0.00 | 43 | 920.8 |
| 20260504020028 | 55 | 7 | 13.0 | 20.0 | 0.00 | 0.00 | 0.00 | 43 | 920.8 |
| 20260504015030 | 56 | 341 | 10.4 | 14.8 | 0.00 | 0.00 | 0.00 | 44 | 920.6 |
| 20260504014032 | 57 | 346 | 13.0 | 17.4 | 0.00 | 0.00 | 0.00 | 42 | 920.1 |
| 20260504013018 | 58 | 323 | 13.9 | 17.4 | 0.00 | 0.00 | 0.00 | 37 | 919.8 |
| 20260504012018 | 59 | 332 | 13.9 | 18.2 | 0.00 | 0.00 | 0.00 | 36 | 919.8 |
| 20260504011020 | 59 | 311 | 15.6 | 24.3 | 0.00 | 0.00 | 0.00 | 36 | 919.8 |
| 20260504010023 | 58 | 322 | 13.9 | 16.5 | 0.00 | 0.00 | 0.00 | 39 | 919.6 |
| 20260504005040 | 60 | 320 | 13.0 | 19.1 | 0.00 | 0.00 | 0.00 | 37 | 919.6 |
| 20260504004016 | 60 | 325 | 13.9 | 19.1 | 0.00 | 0.00 | 0.00 | 37 | 919.6 |
| 20260504003018 | 60 | 336 | 13.0 | 18.2 | 0.00 | 0.00 | 0.00 | 36 | 919.8 |
| 20260504002020 | 60 | 317 | 12.2 | 18.2 | 0.00 | 0.00 | 0.00 | 36 | 919.8 |
| 20260504001022 | 60 | 316 | 11.3 | 14.8 | 0.00 | 0.00 | 0.00 | 37 | 919.8 |
| 20260504000022 | 59 | 323 | 8.7 | 13.0 | 0.00 | 0.00 | 0.00 | 38 | 919.8 |
| 20260503235042 | 58 | 328 | 8.7 | 13.0 | 0.00 | 0.00 | 0.00 | 38 | 919.8 |
| 20260503234100 | 58 | 314 | 12.2 | 17.4 | 0.00 | 0.00 | 0.00 | 37 | 919.6 |
| 20260503233021 | 58 | 337 | 12.2 | 16.5 | 0.00 | 0.00 | 0.00 | 38 | 919.6 |
| 20260503232024 | 58 | 328 | 12.2 | 15.6 | 0.00 | 0.00 | 0.00 | 38 | 919.6 |
| 20260503231020 | 59 | 315 | 11.3 | 15.6 | 0.00 | 0.00 | 0.00 | 37 | 919.6 |
| 20260503230017 | 59 | 320 | 13.9 | 16.5 | 0.00 | 0.00 | 0.00 | 37 | 919.6 |
| 20260503225040 | 60 | 337 | 13.0 | 15.6 | 0.00 | 0.00 | 0.00 | 36 | 919.5 |
| 20260503224018 | 61 | 347 | 13.0 | 18.2 | 0.00 | 0.00 | 0.00 | 35 | 919.3 |
| 20260503223019 | 61 | 340 | 14.8 | 20.0 | 0.00 | 0.00 | 0.00 | 34 | 919.1 |
| 20260503222021 | 62 | 1 | 13.9 | 18.2 | 0.00 | 0.00 | 0.00 | 34 | 919.1 |
| 20260503221024 | 63 | 332 | 14.8 | 20.0 | 0.00 | 0.00 | 0.00 | 33 | 919.0 |
| 20260503220020 | 64 | 2 | 13.9 | 18.2 | 0.00 | 0.00 | 0.00 | 31 | 918.8 |
| 20260503215017 | 65 | 11 | 13.9 | 17.4 | 0.00 | 0.00 | 0.00 | 31 | 918.8 |
| 20260503214021 | 67 | 316 | 13.9 | 23.5 | 0.00 | 0.00 | 0.00 | 30 | 918.6 |
| 20260503213018 | 68 | 3 | 12.2 | 15.6 | 0.00 | 0.00 | 0.00 | 29 | 918.6 |
| 20260503212020 | 66 | 331 | 13.0 | 17.4 | 0.00 | 0.00 | 0.00 | 31 | 918.5 |
| 20260503211022 | 66 | 336 | 13.9 | 19.1 | 0.00 | 0.00 | 0.00 | 31 | 918.5 |
| 20260503210018 | 68 | 345 | 13.9 | 16.5 | 0.00 | 0.00 | 0.00 | 30 | 918.6 |
| 20260503205016 | 68 | 334 | 13.9 | 18.2 | 0.00 | 0.00 | 0.00 | 30 | 918.3 |
| 20260503204017 | 68 | 314 | 13.9 | 21.7 | 0.00 | 0.00 | 0.00 | 32 | 918.3 |
| 20260503203019 | 68 | 311 | 13.0 | 22.6 | 0.00 | 0.00 | 0.00 | 32 | 918.3 |
| 20260503202022 | 67 | 302 | 13.0 | 15.6 | 0.00 | 0.00 | 0.00 | 32 | 918.3 |
| 20260503201045 | 68 | 313 | 13.0 | 18.2 | 0.00 | 0.00 | 0.00 | 31 | 918.4 |
| 20260503200027 | 68 | 305 | 11.3 | 15.6 | 0.00 | 0.00 | 0.00 | 32 | 918.5 |
| 20260503195029 | 69 | 316 | 12.2 | 19.1 | 0.00 | 0.00 | 0.00 | 30 | 918.3 |
| 20260503194032 | 70 | 315 | 12.2 | 15.6 | 0.00 | 0.00 | 0.00 | 30 | 918.3 |
| 20260503193016 | 69 | 323 | 12.2 | 15.6 | 0.00 | 0.00 | 0.00 | 30 | 918.3 |
| 20260503192018 | 68 | 311 | 14.8 | 19.1 | 0.00 | 0.00 | 0.00 | 31 | 918.4 |
| 20260503191020 | 68 | 315 | 13.9 | 20.9 | 0.00 | 0.00 | 0.00 | 32 | 918.5 |
| 20260503190036 | 69 | 341 | 9.6 | 13.9 | 0.00 | 0.00 | 0.00 | 34 | 918.4 |
| 20260503185026 | 68 | 329 | 12.2 | 17.4 | 0.00 | 0.00 | 0.00 | 35 | 918.3 |
| 20260503184027 | 68 | 324 | 12.2 | 17.4 | 0.00 | 0.00 | 0.00 | 36 | 918.5 |
| 20260503183024 | 67 | 307 | 13.9 | 18.2 | 0.00 | 0.00 | 0.00 | 37 | 918.5 |
| 20260503182021 | 67 | 336 | 13.9 | 17.4 | 0.00 | 0.00 | 0.00 | 37 | 918.6 |
| 20260503181018 | 67 | 322 | 13.9 | 18.2 | 0.00 | 0.00 | 0.00 | 36 | 918.5 |
| 20260503180020 | 67 | 328 | 14.8 | 25.2 | 0.00 | 0.00 | 0.00 | 36 | 918.3 |
| 20260503175045 | 67 | 337 | 14.8 | 20.9 | 0.00 | 0.00 | 0.00 | 36 | 918.6 |
| 20260503174020 | 67 | 318 | 13.9 | 17.4 | 0.00 | 0.00 | 0.00 | 36 | 918.6 |
| 20260503173021 | 67 | 317 | 14.8 | 20.0 | 0.00 | 0.00 | 0.00 | 36 | 918.6 |
| 20260503172045 | 67 | 310 | 12.2 | 18.2 | 0.00 | 0.00 | 0.00 | 36 | 918.6 |
| 20260503171026 | 67 | 290 | 11.3 | 13.9 | 0.00 | 0.00 | 0.00 | 37 | 918.7 |
| 20260503131156 | 50 | 290 | 5.2 | 6.1 | 0.00 | 0.00 | 0.00 | 57 | 919.7 |
| 20260503081044 | 45 | 238 | 7.0 | 7.8 | 0.00 | 0.00 | 0.00 | 79 | 920.6 |
| 20260503072024 | 47 | 231 | 7.0 | 7.8 | 0.00 | 0.00 | 0.00 | 71 | 921.0 |
| 20260503071048 | 48 | 238 | 7.0 | 9.6 | 0.00 | 0.00 | 0.00 | 69 | 921.0 |
| 20260503055030 | 49 | 237 | 7.0 | 8.7 | 0.00 | 0.00 | 0.00 | 64 | 921.6 |
| 20260503054032 | 49 | 244 | 6.1 | 7.8 | 0.00 | 0.00 | 0.00 | 64 | 921.6 |
| 20260503053015 | 50 | 249 | 6.1 | 7.0 | 0.00 | 0.00 | 0.00 | 62 | 921.8 |
| 20260503052017 | 50 | 235 | 6.1 | 7.0 | 0.00 | 0.00 | 0.00 | 61 | 921.8 |